Location: Lane
(33.5226°N, 79.8788°W)
Time: 03:27:11
(UTC+00:00)

SR - Pass Details

Date: 27 September 2022
Orbit: 577 x 874 km, 66.7° (Epoch: 06 December)

Event Time Altitude Azimuth Distance (km) Brightness Sun altitude
Rises 04:50:05 0° 256° (WSW) 3,421 - -57.7°
Reaches altitude 10° 04:53:47 10° 279° (W) 2,514 - -57.9°
Maximum altitude 04:56:55 15° 312° (NW) 2,211 - -57.9°
Drops below altitude 10° 05:00:04 10° 345° (NNW) 2,528 - -58.0°
Sets 05:03:50 0° 8° (N) 3,452 - -58.1°
